Location: Newark
(43.0000°N, 1.6781°W)
Time: 23:37:13
(UTC+00:00)

Vanguard 1 Rocket - Pass Details

Date: 20 April 2021
Orbit: 652 x 4224 km, 34.3° (Epoch: 10 May)

Event Time Altitude Azimuth Distance (km) Brightness Sun altitude
Rises 14:59:02 0° 250° (WSW) 3,426 11.2 41.2°
Reaches altitude 10° 15:02:02 10° 239° (WSW) 2,245 10.6 40.8°
Maximum altitude 15:06:09 29° 179° (S) 1,205 8.7 40.1°
Drops below altitude 10° 15:10:01 10° 118° (ESE) 2,083 9.1 39.4°
Sets 15:12:40 0° 107° (ESE) 3,127 9.8 39.0°
